When you browse on this site, cookies collect data to enhance your experience and personalize the content and advertising you see.
Visit our Privacy Policy to learn more. By continuing to use the site, you agree to this use of cookies and data.
  • In Czech Republic
  • List of Countries
  • For 7 days
  • Water Temperature
  • Satellite Maps
  • Weather Map
  • Weather Widgets
  • user-avatar
    Login

    Hourly Weather Wekiva Springs

    Today, 17 February, Sunday

    Time Temperature Precipitation Wind Pressure Humidity
    00:00 +21°C° 0 mm 1 mps 758 mmHg 84%
    01:00 +21°C° 0 mm 1 mps 758 mmHg 87%
    02:00 +21°C° 0 mm 1 mps 758 mmHg 88%
    03:00 +20°C° 0 mm 1 mps 758 mmHg 89%
    04:00 +20°C° 0 mm 1 mps 758 mmHg 90%
    05:00 +20°C° 0 mm 1 mps 758 mmHg 91%
    06:00 +20°C° 0 mm 1 mps 759 mmHg 91%
    07:00 +20°C° 0 mm 1 mps 759 mmHg 92%
    08:00 +21°C° 0 mm 2 mps 759 mmHg 83%
    09:00 +23°C° 0 mm 2 mps 760 mmHg 75%
    10:00 +25°C° 0 mm 2 mps 760 mmHg 67%
    11:00 +27°C° 0 mm 3 mps 760 mmHg 60%
    12:00 +28°C° 0 mm 3 mps 760 mmHg 53%
    13:00 +30°C° 0 mm 4 mps 759 mmHg 47%
    14:00 +30°C° 0 mm 4 mps 759 mmHg 48%
    15:00 +32°C° 0 mm 4 mps 759 mmHg 48%
    16:00 +32°C° 0 mm 4 mps 759 mmHg 49%
    17:00 +30°C° 0 mm 3 mps 759 mmHg 54%
    18:00 +29°C° 0 mm 3 mps 759 mmHg 59%
    19:00 +28°C° 0 mm 2 mps 759 mmHg 64%
    20:00 +27°C° 0 mm 2 mps 759 mmHg 68%
    21:00 +26°C° 0 mm 2 mps 760 mmHg 72%
    22:00 +25°C° 0 mm 2 mps 760 mmHg 75%
    23:00 +25°C° 0 mm 2 mps 760 mmHg 77%

    Tomorrow, 18 February, Monday

    Time Temperature Precipitation Wind Pressure Humidity
    00:00 +24°C° 0 mm 2 mps 760 mmHg 79%
    01:00 +23°C° 0 mm 2 mps 760 mmHg 82%
    02:00 +23°C° 0 mm 2 mps 760 mmHg 82%
    03:00 +23°C° 0 mm 2 mps 760 mmHg 83%
    04:00 +21°C° 0 mm 2 mps 760 mmHg 84%
    05:00 +21°C° 0 mm 2 mps 760 mmHg 84%
    06:00 +21°C° 0 mm 2 mps 760 mmHg 84%
    07:00 +21°C° 0 mm 2 mps 761 mmHg 85%
    08:00 +24°C° 0 mm 2 mps 761 mmHg 80%
    09:00 +26°C° 0 mm 2 mps 762 mmHg 75%
    10:00 +28°C° 0 mm 2 mps 762 mmHg 69%
    11:00 +29°C° 0.1 mm 3 mps 762 mmHg 64%
    12:00 +30°C° 0.1 mm 3 mps 762 mmHg 58%
    13:00 +31°C° 0.1 mm 3 mps 762 mmHg 52%
    14:00 +31°C° 0 mm 2 mps 762 mmHg 52%
    15:00 +31°C° 0 mm 2 mps 761 mmHg 52%
    16:00 +31°C° 0 mm 2 mps 761 mmHg 52%
    17:00 +30°C° 0 mm 2 mps 762 mmHg 56%
    18:00 +29°C° 0 mm 2 mps 762 mmHg 60%
    19:00 +28°C° 0 mm 2 mps 763 mmHg 65%
    20:00 +27°C° 0.1 mm 3 mps 763 mmHg 69%
    21:00 +25°C° 0.1 mm 3 mps 764 mmHg 74%
    22:00 +23°C° 0.1 mm 4 mps 764 mmHg 79%
    23:00 +22°C° 0 mm 4 mps 764 mmHg 81%

    Day after tomorrow, 19 February, Tuesday

    Time Temperature Precipitation Wind Pressure Humidity
    00:00 +21°C° 0 mm 4 mps 764 mmHg 82%
    01:00 +21°C° 0 mm 4 mps 764 mmHg 83%
    02:00 +20°C° 0 mm 4 mps 764 mmHg 85%
    03:00 +20°C° 0 mm 4 mps 764 mmHg 87%
    04:00 +20°C° 0 mm 4 mps 764 mmHg 88%
    05:00 +21°C° 0 mm 4 mps 764 mmHg 89%
    06:00 +21°C° 0 mm 4 mps 764 mmHg 89%
    07:00 +21°C° 0 mm 4 mps 764 mmHg 90%
    08:00 +22°C° 0 mm 4 mps 765 mmHg 88%
    09:00 +23°C° 0 mm 4 mps 765 mmHg 87%
    10:00 +25°C° 0 mm 4 mps 766 mmHg 85%
    11:00 +26°C° 0.1 mm 4 mps 765 mmHg 82%
    12:00 +27°C° 0.1 mm 4 mps 765 mmHg 78%
    13:00 +28°C° 0.1 mm 4 mps 764 mmHg 74%
    14:00 +27°C° 0.9 mm 4 mps 764 mmHg 74%
    15:00 +27°C° 0.9 mm 3 mps 763 mmHg 74%
    16:00 +27°C° 0.9 mm 3 mps 763 mmHg 74%
    17:00 +27°C° 0.2 mm 3 mps 763 mmHg 74%
    18:00 +26°C° 0.2 mm 4 mps 763 mmHg 74%
    19:00 +25°C° 0.2 mm 4 mps 763 mmHg 74%
    20:00 +25°C° 0 mm 4 mps 763 mmHg 77%
    21:00 +23°C° 0 mm 4 mps 763 mmHg 81%
    22:00 +23°C° 0 mm 4 mps 764 mmHg 84%
    23:00 +22°C° 0 mm 3 mps 763 mmHg 86%

    20 February, Wednesday

    Time Temperature Precipitation Wind Pressure Humidity
    00:00 +22°C° 0 mm 3 mps 763 mmHg 88%
    01:00 +22°C° 0 mm 3 mps 763 mmHg 90%
    02:00 +21°C° 0 mm 3 mps 763 mmHg 91%
    03:00 +21°C° 0 mm 3 mps 762 mmHg 93%
    04:00 +21°C° 0 mm 3 mps 762 mmHg 94%
    05:00 +21°C° 0 mm 3 mps 762 mmHg 94%
    06:00 +21°C° 0 mm 3 mps 762 mmHg 94%
    07:00 +22°C° 0 mm 3 mps 762 mmHg 93%
    08:00 +23°C° 0 mm 4 mps 763 mmHg 87%
    09:00 +26°C° 0 mm 4 mps 763 mmHg 81%
    10:00 +27°C° 0 mm 5 mps 763 mmHg 75%
    11:00 +28°C° 0.1 mm 5 mps 763 mmHg 70%
    12:00 +29°C° 0.1 mm 4 mps 762 mmHg 66%
    13:00 +30°C° 0.1 mm 4 mps 762 mmHg 61%
    14:00 +30°C° 0.6 mm 4 mps 761 mmHg 62%
    15:00 +30°C° 0.6 mm 4 mps 761 mmHg 63%
    16:00 +30°C° 0.6 mm 3 mps 760 mmHg 64%
    17:00 +29°C° 1 mm 3 mps 761 mmHg 68%
    18:00 +28°C° 1 mm 2 mps 761 mmHg 73%
    19:00 +27°C° 1 mm 1 mps 761 mmHg 77%
    20:00 +26°C° 0.5 mm 2 mps 762 mmHg 78%
    21:00 +26°C° 0.5 mm 2 mps 762 mmHg 80%
    22:00 +25°C° 0.5 mm 2 mps 762 mmHg 82%
    23:00 +25°C° 0.1 mm 2 mps 762 mmHg 84%

    21 February, Thursday

    Time Temperature Precipitation Wind Pressure Humidity
    00:00 +25°C° 0.1 mm 2 mps 762 mmHg 86%
    01:00 +24°C° 0.1 mm 2 mps 762 mmHg 87%
    02:00 +24°C° 0 mm 2 mps 762 mmHg 88%
    03:00 +24°C° 0 mm 2 mps 761 mmHg 89%
    04:00 +23°C° 0 mm 2 mps 761 mmHg 90%
    05:00 +23°C° 0 mm 2 mps 761 mmHg 91%
    06:00 +23°C° 0 mm 2 mps 762 mmHg 92%
    07:00 +23°C° 0 mm 2 mps 762 mmHg 93%
    08:00 +25°C° 0.2 mm 3 mps 762 mmHg 86%
    09:00 +26°C° 0.2 mm 4 mps 763 mmHg 78%
    10:00 +28°C° 0.2 mm 4 mps 763 mmHg 71%
    11:00 +29°C° 0 mm 5 mps 763 mmHg 65%
    12:00 +30°C° 0 mm 5 mps 762 mmHg 58%
    13:00 +33°C° 0 mm 5 mps 762 mmHg 51%
    14:00 +33°C° 0 mm 4 mps 761 mmHg 49%
    15:00 +33°C° 0 mm 4 mps 761 mmHg 47%
    16:00 +33°C° 0 mm 4 mps 760 mmHg 45%
    17:00 +31°C° 0 mm 3 mps 761 mmHg 50%
    18:00 +30°C° 0 mm 3 mps 761 mmHg 55%
    19:00 +29°C° 0 mm 2 mps 761 mmHg 61%
    20:00 +28°C° 0.2 mm 2 mps 762 mmHg 67%
    21:00 +27°C° 0.2 mm 2 mps 762 mmHg 73%
    22:00 +26°C° 0.2 mm 2 mps 762 mmHg 79%
    23:00 +25°C° 0.1 mm 2 mps 762 mmHg 80%

    22 February, Friday

    Time Temperature Precipitation Wind Pressure Humidity
    00:00 +25°C° 0.1 mm 3 mps 762 mmHg 81%
    01:00 +24°C° 0.1 mm 3 mps 762 mmHg 82%
    02:00 +24°C° 0 mm 3 mps 762 mmHg 84%
    03:00 +24°C° 0 mm 2 mps 762 mmHg 86%
    04:00 +23°C° 0 mm 2 mps 762 mmHg 88%
    05:00 +23°C° 0 mm 2 mps 762 mmHg 90%
    06:00 +23°C° 0 mm 2 mps 762 mmHg 91%
    07:00 +22°C° 0 mm 1 mps 763 mmHg 93%
    08:00 +24°C° 0 mm 1 mps 763 mmHg 84%
    09:00 +26°C° 0 mm 2 mps 764 mmHg 76%
    10:00 +28°C° 0 mm 2 mps 764 mmHg 68%
    11:00 +29°C° 0 mm 2 mps 763 mmHg 60%
    12:00 +30°C° 0 mm 2 mps 763 mmHg 53%
    13:00 +33°C° 0 mm 3 mps 763 mmHg 46%
    14:00 +32°C° 0 mm 2 mps 762 mmHg 45%
    15:00 +32°C° 0 mm 2 mps 762 mmHg 44%
    16:00 +32°C° 0 mm 2 mps 761 mmHg 42%
    17:00 +31°C° 0 mm 2 mps 762 mmHg 47%
    18:00 +30°C° 0 mm 2 mps 762 mmHg 52%
    19:00 +29°C° 0 mm 2 mps 762 mmHg 57%
    20:00 +28°C° 0 mm 2 mps 763 mmHg 62%
    21:00 +27°C° 0 mm 2 mps 763 mmHg 66%
    22:00 +26°C° 0 mm 2 mps 763 mmHg 71%
    23:00 +26°C° 0 mm 2 mps 763 mmHg 73%
    Show more